Weather History for Montgomery, AL

Change the Weather History Date:

Sunday, March 9, 2014

  Actual Average Record
Temperature  
Mean Temperature 61 °F 56 °F  
Max Temperature 76 °F 68 °F 85 °F (1974)
Min Temperature 45 °F 44 °F 20 °F (1996)
Degree Days  
Heating Degree Days 4 10  
Month to date heating degree days 107 94  
Since 1 July heating degree days 2065 1966  
Cooling Degree Days 0 1  
Month to date cooling degree days 0 4  
Year to date cooling degree days 7 10  
Growing Degree Days 10 (Base 50)    
Moisture  
Dew Point 46 °F    
Average Humidity 62    
Maximum Humidity 93    
Minimum Humidity 31    
Precipitation  
Precipitation 0.00 in 0.19 in 5.72 in (1909)
Month to date precipitation 0.84 1.76  
Year to date precipitation 8.51 11.69  
Snow  
Snow 0.00 in 0.00 in - ()
Month to date snowfall 0.0 0.1  
Since 1 July snowfall 0.5 0.2  
Snow Depth 0.00 in    
Sea Level Pressure  
Sea Level Pressure 30.16 in    
Wind  
Wind Speed 4 mph (West)    
Max Wind Speed 12 mph    
Max Gust Speed 15 mph    
Visibility 10 miles    
Events      
T = Trace of Precipitation, MM = Missing Value Source: NWS Daily Summary

Daily Weather History Graph

Daily Weather History Graph

Search for Another Location

Airport:

Trip Planner

Search our weather history database for the weather conditions in past years. The results will help you decide how hot, cold, wet, or windy it might be!

Date:

Astronomy

Mar. 09, 2014 Rise Set
Actual Time 7:03 AM CDT 6:49 PM CDT
Civil Twilight 6:38 AM CDT 7:13 PM CDT
Nautical Twilight 6:10 AM CDT 7:42 PM CDT
Astronomical Twilight 5:42 AM CDT 8:10 PM CDT
Moon 12:55 PM CDT (3/9) 3:14 AM CDT (3/9)
Length of Visible Light 12h 34m
Length of Day
11h 45m
First Quarter, 61% of the Moon is Illuminated
Mar 9
First Quarter
Mar 16
Full
Mar 23
Last Quarter
Mar 30
New
Apr 7
First Quarter

Hourly Weather History & Observations

Time (CDT) Temp. Dew Point Humidity Pressure Visibility Wind Dir Wind Speed Gust Speed Precip Events Conditions
12:53 AM 52.0 °F 46.9 °F 83% 30.16 in 10.0 mi SSW 3.5 mph - N/A   Clear
1:53 AM 51.1 °F 46.0 °F 83% 30.16 in 10.0 mi West 5.8 mph - N/A   Clear
3:53 AM 52.0 °F 46.9 °F 83% 30.16 in 10.0 mi WSW 4.6 mph - N/A   Partly Cloudy
4:53 AM 48.9 °F 46.0 °F 90% 30.17 in 10.0 mi Calm Calm - N/A   Clear
5:53 AM 48.9 °F 46.0 °F 90% 30.18 in 10.0 mi SSW 3.5 mph - N/A   Clear
6:53 AM 48.0 °F 46.0 °F 93% 30.20 in 10.0 mi SW 3.5 mph - N/A   Clear
7:53 AM 51.1 °F 48.0 °F 89% 30.21 in 10.0 mi Calm Calm - N/A   Clear
8:53 AM 55.0 °F 50.0 °F 83% 30.24 in 10.0 mi WNW 4.6 mph - N/A   Clear
9:53 AM 61.0 °F 51.1 °F 70% 30.22 in 10.0 mi NW 5.8 mph - N/A   Clear
10:53 AM 66.0 °F 50.0 °F 56% 30.21 in 10.0 mi Variable 3.5 mph - N/A   Clear
11:53 AM 69.1 °F 48.0 °F 47% 30.21 in 10.0 mi Calm Calm - N/A   Clear
12:53 PM 72.0 °F 46.9 °F 41% 30.19 in 10.0 mi NNW 9.2 mph - N/A   Clear
1:53 PM 73.9 °F 46.9 °F 38% 30.17 in 10.0 mi WNW 3.5 mph - N/A   Scattered Clouds
2:53 PM 75.0 °F 46.0 °F 36% 30.14 in 10.0 mi West 6.9 mph - N/A   Scattered Clouds
3:53 PM 75.0 °F 42.1 °F 31% 30.13 in 10.0 mi NW 8.1 mph - N/A   Clear
4:53 PM 73.9 °F 45.0 °F 35% 30.12 in 10.0 mi NW 6.9 mph - N/A   Clear
5:53 PM 72.0 °F 44.1 °F 37% 30.12 in 10.0 mi NW 4.6 mph - N/A   Clear
6:53 PM 66.9 °F 45.0 °F 45% 30.11 in 10.0 mi Calm Calm - N/A   Clear
7:53 PM 66.0 °F 45.0 °F 47% 30.13 in 10.0 mi West 5.8 mph - N/A   Clear
8:53 PM 64.0 °F 45.0 °F 50% 30.14 in 10.0 mi Calm Calm - N/A   Clear
9:53 PM 61.0 °F 46.0 °F 58% 30.15 in 10.0 mi West 5.8 mph - N/A   Clear
10:53 PM 57.0 °F 46.0 °F 67% 30.15 in 10.0 mi WNW 4.6 mph - N/A   Clear
11:53 PM 59.0 °F 46.0 °F 62% 30.15 in 10.0 mi Calm Calm - N/A   Clear
12:53 AM 55.9 °F 46.9 °F 72% 30.14 in 10.0 mi West 4.6 mph - N/A   Clear